Bloomington, IN

5:20 AM EST on December 16, 2019 (GMT -0500)
Monroe County

Weather History for KBMG - August, 2019

Change the Weather History Date:

Wednesday, August 28, 2019

  Actual Average Record
Temperature  
Mean Temperature 66 °F 72 °F  
Max Temperature 77 °F 84 °F 96 °F (2007)
Min Temperature 56 °F 60 °F 49 °F (2010)
Degree Days  
Heating Degree Days 0 0  
Month to date heating degree days 0 0  
Since 1 June heating degree days 14 17  
Since 1 July heating degree days 0 2  
Cooling Degree Days 2 7  
Month to date cooling degree days 245 235  
Year to date cooling degree days 952 801  
Since 1 June cooling degree days 821 719  
Growing Degree Days 16 (Base 50)    
Moisture  
Dew Point 57 °F    
Average Humidity 74    
Maximum Humidity 96    
Minimum Humidity 40    
Precipitation  
Precipitation 0.00 in 0.14 in 0.68 in (2001)
Month to date precipitation 4.17 3.14  
Year to date precipitation 36.21 32.81  
Sea Level Pressure  
Sea Level Pressure 30.00 in    
Wind  
Wind Speed 3 mph ()    
Max Wind Speed 18 mph    
Max Gust Speed 27 mph    
Visibility 8.5 miles    
Events      
T = Trace of Precipitation, MM = Missing Value Source: Averaged Metar Reports

Daily Weather History Graph

Daily Weather History Graph

Search for Another Location

Airport or City:

Astronomy

Aug. 28, 2019 Rise Set
Actual Time 7:11 AM EDT 8:23 PM EDT
Civil Twilight 6:43 AM EDT 8:51 PM EDT
Nautical Twilight 6:10 AM EDT 9:24 PM EDT
Astronomical Twilight 5:35 AM EDT 9:58 PM EDT
Moon 4:44 AM EDT (8/28) 7:33 PM EDT (8/28)
Length of Visible Light 14h 07m
Length of Day
13h 12m
Waning Crescent, 5% of the Moon is Illuminated
Aug 28
Waning Crescent
Aug 30
New
Sep 5
First Quarter
Sep 14
Full
Sep 21
Last Quarter

Hourly Weather History & Observations

Time (EDT) Temp. Dew Point Humidity Pressure Visibility Wind Dir Wind Speed Gust Speed Precip Events Conditions
12:53 AM 69.1 °F 62.1 °F 78% 29.95 in 10.0 mi NW 3.5 mph - N/A   Clear
1:53 AM 64.9 °F 62.1 °F 90% 29.95 in 10.0 mi WNW 3.5 mph - N/A   Clear
2:50 AM 62.6 °F 60.8 °F 94% 29.96 in 2.0 mi Calm Calm - N/A   Clear
2:53 AM 62.1 °F 60.1 °F 93% 29.94 in 2.0 mi Calm Calm - N/A   Clear
3:05 AM 61.0 °F 59.0 °F 93% 29.96 in 0.8 mi Calm Calm - N/A   Clear
3:16 AM 61.0 °F 59.0 °F 93% 29.96 in 2.0 mi Calm Calm - N/A   Clear
3:24 AM 60.1 °F 59.0 °F 96% 29.96 in 7.0 mi Calm Calm - N/A   Clear
3:38 AM 60.1 °F 59.0 °F 96% 29.96 in 2.0 mi WNW 3.5 mph - N/A   Clear
3:48 AM 62.6 °F 59.0 °F 88% 29.96 in 10.0 mi WNW 4.6 mph - N/A   Clear
3:53 AM 64.0 °F 59.0 °F 84% 29.94 in 10.0 mi Calm Calm - N/A   Clear
4:53 AM 63.0 °F 57.9 °F 84% 29.95 in 10.0 mi Calm Calm - N/A   Clear
5:53 AM 62.1 °F 57.9 °F 86% 29.96 in 10.0 mi Calm Calm - N/A   Clear
6:53 AM 60.1 °F 57.0 °F 90% 29.99 in 10.0 mi Calm Calm - N/A   Clear
7:53 AM 61.0 °F 57.9 °F 90% 30.01 in 10.0 mi West 3.5 mph - N/A   Clear
8:53 AM 66.0 °F 57.9 °F 75% 30.02 in 10.0 mi West 4.6 mph - N/A   Clear
9:53 AM 69.1 °F 57.9 °F 68% 30.03 in 10.0 mi NW 3.5 mph - N/A   Clear
10:53 AM 72.0 °F 54.0 °F 53% 30.04 in 10.0 mi Variable 5.8 mph - N/A   Clear
11:53 AM 73.9 °F 55.9 °F 53% 30.04 in 10.0 mi Variable 5.8 mph - N/A   Clear
12:53 PM 73.9 °F 53.1 °F 48% 30.04 in 10.0 mi WNW 10.4 mph 21.9 mph N/A   Clear
1:53 PM 75.9 °F 51.1 °F 42% 30.04 in 10.0 mi West 11.5 mph 20.7 mph N/A   Clear
2:53 PM 77.0 °F 53.1 °F 43% 30.03 in 10.0 mi WNW 15.0 mph 24.2 mph N/A   Partly Cloudy
3:53 PM 75.9 °F 52.0 °F 43% 30.02 in 10.0 mi WNW 12.7 mph 21.9 mph N/A   Clear
4:53 PM 75.9 °F 50.0 °F 40% 30.02 in 10.0 mi NW 10.4 mph 20.7 mph N/A   Clear
5:53 PM 75.0 °F 54.0 °F 48% 30.01 in 10.0 mi WNW 6.9 mph 16.1 mph N/A   Clear
6:53 PM 73.9 °F 54.0 °F 50% 30.02 in 10.0 mi West 8.1 mph - N/A   Clear
7:53 PM 70.0 °F 55.9 °F 61% 30.02 in 10.0 mi West 3.5 mph - N/A   Clear
8:53 PM 62.1 °F 57.9 °F 86% 30.02 in 10.0 mi Calm Calm - N/A   Clear
9:53 PM 60.1 °F 55.9 °F 86% 30.03 in 10.0 mi Calm Calm - N/A   Clear
10:53 PM 59.0 °F 55.9 °F 90% 30.04 in 10.0 mi Calm Calm - N/A   Clear
11:53 PM 57.0 °F 55.0 °F 93% 30.04 in 10.0 mi Calm Calm - N/A   Clear